Regional Weather Roundup
Issued by NWS Sioux Falls, SD

Home | Current Version | Previous Version | Text Only | Print | Product List | Glossary On
Versions: 1 2 3 4 5 6 7 8 9 10 11 12 13 14 15 16 17 18 19 20 21 22 23 24 25 26 27 28 29 30 31 32 33 34 35 36 37 38 39 40 41 42 43 44 45 46 47 48 49 50
000
ASUS43 KFSD 192110
RWRFSD

WEATHER ROUNDUP FOR SE SOUTH DAKOTA/SW MINNESOTA/NW IOWA
NATIONAL WEATHER SERVICE SIOUX FALLS SD
400 PM CDT SAT APR 19 2014

NOTE: "FAIR" INDICATES FEW OR NO CLOUDS BELOW 12,000 FEET WITH NO
SIGNIFICANT WEATHER AND OR OBSTRUCTIONS TO VISIBILITY.


SDZ038>040-050-052>070-192200-
SOUTHEAST SOUTH DAKOTA

CITY           SKY/WX    TMP DP  RH WIND       PRES   REMARKS
CHAMBERLAIN      N/A     67  24  19 VRB5      30.01F
HURON          MOSUNNY   69  22  16 VRB3      29.98F
MADISON        FAIR      66  32  28 CALM      30.00S
MITCHELL       PTSUNNY   66  26  22 N8        30.00S
SIOUX FALLS    CLOUDY    69  41  36 NW12      29.99S
WINNER         FAIR      67  20  16 CALM      30.03S
YANKTON        CLOUDY    68  41  37 NW12      30.00R
$$

MNZ071-072-080-081-089-090-097-098-192200-
SOUTHWEST MINNESOTA

CITY           SKY/WX    TMP DP  RH WIND       PRES   REMARKS
FAIRMONT       CLOUDY    73  45  35 SW18      29.99S
JACKSON        PTSUNNY   73  43  33 SW15G25   29.98S
LUVERNE        PTSUNNY   72  41  33 NW9       29.98R
MARSHALL       CLOUDY    64  39  39 N10       29.98S
MONTEVIDEO     LGT RAIN  59  45  58 CALM      29.99S
PIPESTONE      CLOUDY    64  34  32 N8G16     30.00R
REDWOOD FALLS  CLOUDY    66  47  50 NW9G18    29.96F
TRACY          PTSUNNY   67  48  49 N10       29.99R
WINDOM         MOSUNNY   73  45  35 SW17G25   29.97S
WORTHINGTON    MOSUNNY   72  45  37 SW13G18   30.00S
$$

IAZ001>003-012>014-020>022-031-032-NEZ013-014-SDZ071-192200-
NORTHWEST IOWA

CITY           SKY/WX    TMP DP  RH WIND       PRES   REMARKS
CHEROKEE       CLOUDY    75  46  35 SW15G25   29.97F
DENISON        PTSUNNY   75  43  31 SW18G26   29.99S
ESTHERVILLE    PTSUNNY   75  48  38 SW18G24   29.97F
LE MARS        PTSUNNY   75  48  38 SW8G21    29.96F
ORANGE CITY    PTSUNNY   75  45  33 SW17      29.97F
SHELDON        PTSUNNY   73  48  40 SW15      29.97S
SIOUX CITY     CLOUDY    78  48  34 SW17G28   29.96F
SPENCER        CLOUDY    75  47  36 SW22      29.98F
STORM LAKE     PTSUNNY   77  45  31 SW17G29   29.98F
$$

ABBREVIATIONS USED IN REMARKS
   TC - TEMPERATURE IN CELSIUS
  WCI - WIND CHILL INDEX
   HX - HEAT INDEX
  VSB - VISIBILITY




USA.gov is the U.S. government's official web portal to all federal, state and local government web resources and services.